M I D A S
Marine Information and Data Acquisition System
Tripno 593 of the Zeeleeuw from 2003-09-18 06:17:58 to 2003-09-18 13:10:43
Back to CruiseResearch ActivitiesStationsMapUnderway DataData graphs

EquipmentUnitsComments
TimeDGPSUTC
LatitudeDGPSDM.mWGS84
LongitudeDGPSDM.mWGS84
SpeedMeteo Stationm/sRelative wind speed
DirectionMeteo StationdegRelative wind direction
TemperatureMeteo Stationdeg CelciusAir temperature
PressureMeteo StationPaAtmospheric pressure
HumidityMeteo Station%Relative humidity
Missing or incorrect values are displayed as -999
Metereological data collected by the RV Zeeleeuw from 2003-09-18 06:17:58 to 2003-09-18 13:10:43
                                                                                    Next 1000 lines
Time Latitude Longitude Speed Direction Temperature Pressure Humidity
2003-09-18 06:18:06 51°13.71 2°55.76 2.8 281 15 101720 68
2003-09-18 06:18:12 51°13.72 2°55.75 2.3 267 15 101720 68
2003-09-18 06:18:16 51°13.72 2°55.75 2.5 324 15 101720 68
2003-09-18 06:18:22 51°13.73 2°55.74 1.4 309 15 101720 68
2003-09-18 06:18:26 51°13.74 2°55.73 2.2 331 15 101720 68
2003-09-18 06:18:32 51°13.74 2°55.72 3.3 324 15 101720 68
2003-09-18 06:18:36 51°13.75 2°55.71 2.9 41 15 101720 68
2003-09-18 06:18:42 51°13.76 2°55.7 2.7 325 15 101720 68
2003-09-18 06:18:46 51°13.77 2°55.69 2.3 333 15 101720 68
2003-09-18 06:18:52 51°13.78 2°55.68 2.3 335 15 101720 68
2003-09-18 06:18:56 51°13.79 2°55.67 2.2 340 15 101720 68
2003-09-18 06:19:02 51°13.8 2°55.66 2.1 327 15 101720 68
2003-09-18 06:19:06 51°13.81 2°55.65 2.3 332 15 101720 67
2003-09-18 06:19:12 51°13.82 2°55.64 1.8 327 15 101720 67
2003-09-18 06:19:14 51°13.83 2°55.63 1.7 349 15 101720 68
2003-09-18 06:19:22 51°13.85 2°55.62 2.1 12 15 101720 68
2003-09-18 06:19:26 51°13.86 2°55.61 2.9 334 15 101720 68
2003-09-18 06:19:32 51°13.87 2°55.6 1.6 302 15 101720 68
2003-09-18 06:19:36 51°13.88 2°55.59 1.8 12 15.1 101710 68
2003-09-18 06:19:42 51°13.9 2°55.58 3.5 350 15.1 101710 68
2003-09-18 06:19:46 51°13.91 2°55.58 2.6 338 15.1 101710 68
2003-09-18 06:19:52 51°13.92 2°55.57 1.8 5 15.1 101710 68
2003-09-18 06:19:56 51°13.93 2°55.56 1.2 354 15.1 101720 68
2003-09-18 06:20:02 51°13.94 2°55.55 1.1 325 15.1 101720 68
2003-09-18 06:20:06 51°13.95 2°55.54 1.5 305 15.1 101720 67
2003-09-18 06:20:12 51°13.97 2°55.53 1.6 307 15.1 101720 67
2003-09-18 06:20:16 51°13.97 2°55.53 2.1 301 15.1 101710 67
2003-09-18 06:20:22 51°13.99 2°55.52 1.2 272 15.1 101710 67
2003-09-18 06:20:26 51°14 2°55.51 1 308 15.1 101710 67
2003-09-18 06:20:32 51°14.01 2°55.5 1 322 15.1 101710 67
2003-09-18 06:20:36 51°14.02 2°55.5 1.9 323 15.1 101710 67
2003-09-18 06:20:42 51°14.03 2°55.49 2.3 323 15.1 101710 67
2003-09-18 06:20:46 51°14.04 2°55.48 1.9 323 15.1 101710 67
2003-09-18 06:20:52 51°14.05 2°55.47 1.4 43 15.1 101710 67
2003-09-18 06:20:56 51°14.06 2°55.46 1.9 343 15.1 101710 67
2003-09-18 06:21:02 51°14.07 2°55.45 1.9 318 15.1 101710 67
2003-09-18 06:21:06 51°14.08 2°55.45 2.7 325 15.1 101710 67
2003-09-18 06:21:12 51°14.09 2°55.44 2 234 15.1 101710 67
2003-09-18 06:21:16 51°14.1 2°55.43 1.1 299 15.2 101710 67
2003-09-18 06:21:22 51°14.11 2°55.42 2.5 351 15.2 101710 67
2003-09-18 06:21:26 51°14.12 2°55.41 2.3 328 15.2 101710 67
2003-09-18 06:21:32 51°14.14 2°55.4 3.6 333 15.2 101710 67
2003-09-18 06:21:36 51°14.15 2°55.39 3.4 356 15.2 101710 67
2003-09-18 06:21:42 51°14.16 2°55.38 4.4 335 15.2 101710 67
2003-09-18 06:21:46 51°14.17 2°55.37 3.9 328 15.2 101710 67
2003-09-18 06:21:50 51°14.18 2°55.36 3.9 339 15.2 101710 67
2003-09-18 06:21:56 51°14.2 2°55.35 3.6 44 15.2 101710 67
2003-09-18 06:22:02 51°14.21 2°55.33 4 319 15.2 101710 67
2003-09-18 06:22:06 51°14.22 2°55.32 4.1 324 15.3 101710 67
2003-09-18 06:22:12 51°14.24 2°55.3 3.7 287 15.3 101710 67
2003-09-18 06:22:16 51°14.25 2°55.29 3.1 280 15.3 101710 67
2003-09-18 06:22:22 51°14.26 2°55.27 3 332 15.3 101710 67
2003-09-18 06:22:26 51°14.27 2°55.26 2.6 227 15.3 101710 67
2003-09-18 06:22:32 51°14.28 2°55.24 4.8 300 15.3 101710 67
2003-09-18 06:22:36 51°14.29 2°55.22 3.8 296 15.3 101710 66
2003-09-18 06:22:42 51°14.3 2°55.2 4.7 301 15.3 101710 66
2003-09-18 06:22:46 51°14.31 2°55.19 4.6 306 15.3 101710 66
2003-09-18 06:22:52 51°14.32 2°55.16 3.6 292 15.3 101710 66
2003-09-18 06:22:56 51°14.33 2°55.15 5.5 300 15.4 101700 66
2003-09-18 06:23:02 51°14.34 2°55.12 4.8 38 15.4 101700 66
2003-09-18 06:23:06 51°14.35 2°55.11 3.4 318 15.4 101700 66
2003-09-18 06:23:12 51°14.36 2°55.09 4.6 324 15.4 101700 66
2003-09-18 06:23:16 51°14.37 2°55.07 4.1 292 15.4 101700 66
2003-09-18 06:23:22 51°14.38 2°55.05 4.2 299 15.4 101700 66
2003-09-18 06:23:26 51°14.39 2°55.04 4.6 307 15.4 101700 66
2003-09-18 06:23:32 51°14.4 2°55.02 6.2 292 15.4 101700 66
2003-09-18 06:23:36 51°14.41 2°55.01 7.3 283 15.5 101700 66
2003-09-18 06:23:42 51°14.43 2°54.99 6.5 291 15.5 101700 66
2003-09-18 06:23:46 51°14.44 2°54.98 5.3 294 15.5 101700 66
2003-09-18 06:23:52 51°14.45 2°54.96 5.5 299 15.5 101700 66
2003-09-18 06:23:56 51°14.46 2°54.95 4.9 303 15.6 101700 66
2003-09-18 06:24:02 51°14.48 2°54.93 4.5 298 15.6 101700 66
2003-09-18 06:24:06 51°14.49 2°54.92 4.5 298 15.6 101700 66
2003-09-18 06:24:12 51°14.51 2°54.91 4.3 296 15.6 101700 66
2003-09-18 06:24:16 51°14.52 2°54.89 5.1 286 15.7 101700 66
2003-09-18 06:24:22 51°14.53 2°54.88 4.9 303 15.7 101700 66
2003-09-18 06:24:26 51°14.54 2°54.87 5.6 278 15.8 101700 66
2003-09-18 06:24:32 51°14.56 2°54.85 4.4 286 15.8 101700 66
2003-09-18 06:24:36 51°14.57 2°54.84 4.4 295 15.8 101700 65
2003-09-18 06:24:42 51°14.59 2°54.82 3.9 300 15.8 101700 65
2003-09-18 06:24:46 51°14.6 2°54.81 4 298 15.8 101700 65
2003-09-18 06:24:52 51°14.62 2°54.79 4.8 278 15.8 101700 65
2003-09-18 06:24:56 51°14.63 2°54.78 4.4 301 15.9 101700 65
2003-09-18 06:25:02 51°14.65 2°54.76 5 290 15.9 101700 65
2003-09-18 06:25:06 51°14.66 2°54.74 5.1 289 15.9 101700 65
2003-09-18 06:25:12 51°14.68 2°54.73 5.2 300 15.9 101700 65
2003-09-18 06:25:16 51°14.69 2°54.71 5.9 302 16 101700 65
2003-09-18 06:25:22 51°14.71 2°54.69 4.3 305 16 101700 65
2003-09-18 06:25:26 51°14.72 2°54.68 4.8 302 16 101700 64
2003-09-18 06:25:30 51°14.73 2°54.67 5.6 299 16 101700 64
2003-09-18 06:25:36 51°14.75 2°54.64 4.9 300 16 101700 65
2003-09-18 06:25:42 51°14.77 2°54.62 5.4 303 16 101700 65
2003-09-18 06:25:46 51°14.78 2°54.61 5.4 304 16.1 101700 64
2003-09-18 06:25:52 51°14.8 2°54.59 5.2 308 16.1 101700 64
2003-09-18 06:25:56 51°14.81 2°54.58 5.3 314 16.1 101700 65
2003-09-18 06:26:02 51°14.83 2°54.56 4.7 312 16.1 101700 65
2003-09-18 06:26:06 51°14.85 2°54.54 4.2 304 16.2 101700 65
2003-09-18 06:26:12 51°14.86 2°54.52 4.6 312 16.2 101700 65
2003-09-18 06:26:16 51°14.88 2°54.51 4.7 306 16.2 101700 64
2003-09-18 06:26:22 51°14.9 2°54.49 5 302 16.2 101700 64
2003-09-18 06:26:26 51°14.91 2°54.48 4.8 299 16.3 101700 65
2003-09-18 06:26:32 51°14.93 2°54.46 4.3 303 16.3 101700 65
2003-09-18 06:26:36 51°14.94 2°54.45 4.5 302 16.3 101700 65
2003-09-18 06:26:42 51°14.96 2°54.43 4.6 306 16.3 101700 65
2003-09-18 06:26:46 51°14.98 2°54.42 5.6 297 16.3 101700 65
2003-09-18 06:26:52 51°15 2°54.4 4.2 303 16.3 101700 65
2003-09-18 06:26:56 51°15.01 2°54.38 4.7 307 16.3 101700 64
2003-09-18 06:27:02 51°15.03 2°54.36 5.2 306 16.3 101700 64
2003-09-18 06:27:06 51°15.04 2°54.35 5.2 310 16.3 101700 64
2003-09-18 06:27:12 51°15.06 2°54.33 5.5 301 16.3 101700 64
2003-09-18 06:27:16 51°15.07 2°54.32 5.2 307 16.3 101700 64
2003-09-18 06:27:22 51°15.09 2°54.3 4.8 304 16.3 101700 64
2003-09-18 06:27:26 51°15.1 2°54.28 5.1 299 16.3 101700 64
2003-09-18 06:27:32 51°15.12 2°54.26 4.8 301 16.3 101700 64
2003-09-18 06:27:36 51°15.14 2°54.25 4.8 303 16.3 101700 64
2003-09-18 06:27:42 51°15.16 2°54.23 4.7 306 16.3 101700 64
2003-09-18 06:27:46 51°15.17 2°54.22 4.5 314 16.3 101700 64
2003-09-18 06:27:52 51°15.19 2°54.2 4.5 301 16.3 101700 64
2003-09-18 06:27:56 51°15.2 2°54.19 4.1 300 16.3 101700 64
2003-09-18 06:28:02 51°15.22 2°54.17 4.6 314 16.3 101700 64
2003-09-18 06:28:06 51°15.24 2°54.15 4.5 306 16.4 101700 64
2003-09-18 06:28:12 51°15.26 2°54.13 4.5 303 16.4 101700 64
2003-09-18 06:28:16 51°15.27 2°54.12 4.5 312 16.4 101700 65
2003-09-18 06:28:22 51°15.29 2°54.1 3.9 303 16.4 101700 65
2003-09-18 06:28:26 51°15.3 2°54.09 4.2 312 16.4 101700 65
2003-09-18 06:28:32 51°15.32 2°54.08 4.4 227 16.4 101700 65
2003-09-18 06:28:36 51°15.34 2°54.07 3.9 297 16.4 101700 65
2003-09-18 06:28:42 51°15.36 2°54.05 3.6 310 16.4 101700 65
2003-09-18 06:28:46 51°15.37 2°54.04 3.4 313 16.4 101700 65
2003-09-18 06:28:52 51°15.4 2°54.03 3.8 318 16.4 101700 65
2003-09-18 06:28:56 51°15.41 2°54.02 4.3 319 16.4 101700 65
2003-09-18 06:29:02 51°15.43 2°54 4.8 310 16.4 101700 65
2003-09-18 06:29:06 51°15.45 2°53.99 5.4 296 16.4 101700 65
2003-09-18 06:29:12 51°15.47 2°53.98 5.8 299 16.4 101700 65
2003-09-18 06:29:16 51°15.48 2°53.97 5.4 298 16.4 101700 66
2003-09-18 06:29:22 51°15.5 2°53.95 5 297 16.4 101700 66
2003-09-18 06:29:26 51°15.52 2°53.94 5.3 298 16.5 101700 66
2003-09-18 06:29:32 51°15.54 2°53.93 4.8 294 16.5 101700 66
2003-09-18 06:29:36 51°15.55 2°53.91 5.5 292 16.5 101700 67
2003-09-18 06:29:42 51°15.57 2°53.9 5.3 289 16.5 101700 67
2003-09-18 06:29:46 51°15.59 2°53.89 4.7 296 16.5 101700 66
2003-09-18 06:29:52 51°15.61 2°53.87 4.4 305 16.5 101700 66
2003-09-18 06:29:56 51°15.62 2°53.86 4.6 298 16.5 101700 67
2003-09-18 06:30:02 51°15.64 2°53.85 4.6 292 16.5 101700 67
2003-09-18 06:30:06 51°15.66 2°53.83 5.1 296 16.6 101700 66
2003-09-18 06:30:12 51°15.68 2°53.82 4.6 296 16.6 101700 66
2003-09-18 06:30:16 51°15.69 2°53.81 4.8 297 16.6 101700 66
2003-09-18 06:30:22 51°15.71 2°53.79 4.2 299 16.6 101700 66
2003-09-18 06:30:26 51°15.73 2°53.78 5.2 306 16.6 101700 66
2003-09-18 06:30:32 51°15.75 2°53.76 4.3 301 16.6 101700 66
2003-09-18 06:30:36 51°15.76 2°53.75 5 293 16.6 101700 66
2003-09-18 06:30:42 51°15.78 2°53.73 5.2 304 16.6 101700 66
2003-09-18 06:30:46 51°15.8 2°53.72 5.2 297 16.6 101700 66
2003-09-18 06:30:52 51°15.82 2°53.71 5.1 304 16.6 101700 66
2003-09-18 06:30:56 51°15.83 2°53.69 4.8 298 16.6 101690 66
2003-09-18 06:31:02 51°15.85 2°53.68 4.9 291 16.6 101690 66
2003-09-18 06:31:06 51°15.87 2°53.67 4.4 296 16.7 101700 66
2003-09-18 06:31:12 51°15.89 2°53.65 4.9 307 16.7 101700 66
2003-09-18 06:31:16 51°15.9 2°53.64 5.4 304 16.7 101700 66
2003-09-18 06:31:22 51°15.92 2°53.62 4.5 300 16.7 101700 66
2003-09-18 06:31:26 51°15.94 2°53.61 4.7 297 16.7 101700 66
2003-09-18 06:31:32 51°15.96 2°53.59 4.8 306 16.7 101700 66
2003-09-18 06:31:36 51°15.97 2°53.58 5 303 16.7 101700 66
2003-09-18 06:31:42 51°15.99 2°53.57 4.4 303 16.7 101700 66
2003-09-18 06:31:46 51°16 2°53.55 5.1 303 16.7 101700 66
2003-09-18 06:31:52 51°16.03 2°53.54 4.7 295 16.7 101700 66
2003-09-18 06:31:56 51°16.04 2°53.53 5 303 16.7 101700 66
2003-09-18 06:32:02 51°16.06 2°53.51 4.3 306 16.7 101700 66
2003-09-18 06:32:06 51°16.07 2°53.5 4.7 294 16.8 101700 66
2003-09-18 06:32:12 51°16.09 2°53.48 4.6 302 16.8 101700 66
2003-09-18 06:32:16 51°16.11 2°53.47 4.5 300 16.8 101690 66
2003-09-18 06:32:22 51°16.13 2°53.46 4.5 297 16.8 101690 66
2003-09-18 06:32:26 51°16.14 2°53.44 4.8 307 16.8 101700 66
2003-09-18 06:32:32 51°16.16 2°53.43 4.7 307 16.8 101700 66
2003-09-18 06:32:36 51°16.18 2°53.42 4.5 43 16.8 101700 67
2003-09-18 06:32:42 51°16.2 2°53.4 4.4 303 16.8 101700 67
2003-09-18 06:32:46 51°16.21 2°53.39 4.7 304 16.8 101700 66
2003-09-18 06:32:52 51°16.23 2°53.37 4.4 304 16.8 101700 66
2003-09-18 06:32:56 51°16.25 2°53.36 5.1 300 16.9 101690 67
2003-09-18 06:33:02 51°16.27 2°53.35 5.3 297 16.9 101690 67
2003-09-18 06:33:06 51°16.28 2°53.34 5.5 291 16.9 101690 67
2003-09-18 06:33:12 51°16.3 2°53.32 5.7 289 16.9 101690 67
2003-09-18 06:33:16 51°16.32 2°53.31 5.4 290 16.9 101700 67
2003-09-18 06:33:22 51°16.34 2°53.3 5.2 297 16.9 101700 67
2003-09-18 06:33:26 51°16.35 2°53.29 5.2 295 16.9 101700 67
2003-09-18 06:33:32 51°16.38 2°53.27 5.3 298 16.9 101700 67
2003-09-18 06:33:36 51°16.39 2°53.26 5.7 292 16.9 101690 66
2003-09-18 06:33:42 51°16.41 2°53.25 4.8 292 16.9 101690 66
2003-09-18 06:33:46 51°16.42 2°53.24 4.3 301 16.9 101690 66
2003-09-18 06:33:52 51°16.45 2°53.22 4.8 300 16.9 101690 66
2003-09-18 06:33:56 51°16.46 2°53.21 4.7 300 16.9 101700 66
2003-09-18 06:34:02 51°16.48 2°53.2 5.1 288 16.9 101700 66
2003-09-18 06:34:06 51°16.5 2°53.19 4.7 292 16.9 101690 66
2003-09-18 06:34:12 51°16.52 2°53.17 5 297 16.9 101690 66
2003-09-18 06:34:16 51°16.53 2°53.16 5.4 296 16.9 101700 66
2003-09-18 06:34:22 51°16.55 2°53.15 4.9 292 16.9 101700 66
2003-09-18 06:34:26 51°16.57 2°53.13 5.1 293 16.9 101690 66
2003-09-18 06:34:32 51°16.59 2°53.12 4.9 297 16.9 101690 66
2003-09-18 06:34:36 51°16.6 2°53.11 4.5 306 16.9 101700 66
2003-09-18 06:34:42 51°16.62 2°53.09 5.2 288 16.9 101700 66
2003-09-18 06:34:46 51°16.64 2°53.08 5.1 294 16.9 101690 65
2003-09-18 06:34:52 51°16.66 2°53.07 4.5 292 16.9 101690 65
2003-09-18 06:34:56 51°16.67 2°53.06 4.7 301 16.9 101690 66
2003-09-18 06:35:02 51°16.69 2°53.04 4.7 300 16.9 101690 66
2003-09-18 06:35:06 51°16.71 2°53.03 5.3 294 16.9 101690 66
2003-09-18 06:35:12 51°16.73 2°53.02 5.3 291 16.9 101690 66
2003-09-18 06:35:16 51°16.74 2°53.01 5 294 16.9 101700 66
2003-09-18 06:35:22 51°16.76 2°52.99 4.8 302 16.9 101700 66
2003-09-18 06:35:26 51°16.78 2°52.98 4.8 297 17 101700 66
2003-09-18 06:35:32 51°16.8 2°52.96 4.8 295 17 101700 66
2003-09-18 06:35:36 51°16.81 2°52.95 5.2 293 17 101690 66
2003-09-18 06:35:42 51°16.83 2°52.94 5.2 296 17 101690 66
2003-09-18 06:35:46 51°16.85 2°52.93 6 299 17 101700 66
2003-09-18 06:35:52 51°16.87 2°52.91 5.2 286 17 101700 66
2003-09-18 06:35:56 51°16.88 2°52.9 5.6 287 17 101690 66
2003-09-18 06:36:02 51°16.9 2°52.89 5.9 298 17 101690 66
2003-09-18 06:36:06 51°16.92 2°52.88 5.4 295 17 101690 66
2003-09-18 06:36:12 51°16.94 2°52.86 5.1 301 17 101690 66
2003-09-18 06:36:16 51°16.95 2°52.85 5.4 300 17 101690 66
2003-09-18 06:36:22 51°16.97 2°52.84 6 295 17 101690 66
2003-09-18 06:36:26 51°16.99 2°52.82 4.6 304 17 101690 66
2003-09-18 06:36:32 51°17.01 2°52.81 4.7 296 17 101690 66
2003-09-18 06:36:36 51°17.02 2°52.8 5.2 295 17 101690 66
2003-09-18 06:36:42 51°17.05 2°52.78 5.4 307 17 101690 66
2003-09-18 06:36:46 51°17.06 2°52.77 5.2 290 17 101690 66
2003-09-18 06:36:52 51°17.08 2°52.76 4.7 289 17 101690 66
2003-09-18 06:36:56 51°17.1 2°52.75 4.2 291 17 101690 66
2003-09-18 06:37:02 51°17.12 2°52.73 4 306 17 101690 66
2003-09-18 06:37:06 51°17.13 2°52.73 4.2 303 17 101690 66
2003-09-18 06:37:12 51°17.16 2°52.71 4 296 17 101690 66
2003-09-18 06:37:16 51°17.17 2°52.71 3 292 17 101700 65
2003-09-18 06:37:22 51°17.19 2°52.7 3.3 300 17 101700 65
2003-09-18 06:37:26 51°17.21 2°52.7 1.9 295 17 101700 66
2003-09-18 06:37:32 51°17.23 2°52.7 2.1 292 17 101700 66
2003-09-18 06:37:36 51°17.25 2°52.7 2.7 279 17 101700 66
2003-09-18 06:37:42 51°17.27 2°52.7 2.5 271 17 101700 66
2003-09-18 06:37:46 51°17.29 2°52.7 1.9 269 17 101700 66
2003-09-18 06:37:52 51°17.31 2°52.69 2.1 301 17 101700 66
2003-09-18 06:37:56 51°17.33 2°52.69 2.1 313 17 101700 66
2003-09-18 06:38:02 51°17.35 2°52.69 2.4 300 17 101700 66
2003-09-18 06:38:06 51°17.37 2°52.69 2.1 301 17 101700 66
2003-09-18 06:38:12 51°17.39 2°52.69 2.2 296 17 101700 66
2003-09-18 06:38:16 51°17.41 2°52.69 2.2 292 17 101700 66
2003-09-18 06:38:22 51°17.43 2°52.69 2.3 278 17 101700 66
2003-09-18 06:38:26 51°17.45 2°52.68 2 279 17 101700 66
2003-09-18 06:38:32 51°17.47 2°52.68 2.2 273 17 101700 66
2003-09-18 06:38:36 51°17.49 2°52.68 2 275 17 101700 66
2003-09-18 06:38:42 51°17.51 2°52.68 2.3 303 17 101700 66
2003-09-18 06:38:46 51°17.52 2°52.68 2.5 307 17 101700 66
2003-09-18 06:38:52 51°17.55 2°52.68 2.5 309 17 101700 66
2003-09-18 06:38:56 51°17.56 2°52.67 2.8 298 16.9 101700 66
2003-09-18 06:39:02 51°17.59 2°52.67 2.2 291 16.9 101700 66
2003-09-18 06:39:06 51°17.6 2°52.67 2.3 301 16.9 101700 66
2003-09-18 06:39:12 51°17.63 2°52.67 1.9 228 16.9 101700 66
2003-09-18 06:39:16 51°17.64 2°52.67 2.4 303 16.9 101700 66
2003-09-18 06:39:22 51°17.67 2°52.66 2.5 305 16.9 101700 66
2003-09-18 06:39:26 51°17.68 2°52.66 2.8 291 16.9 101700 66
2003-09-18 06:39:32 51°17.71 2°52.66 2.8 287 16.9 101700 66
2003-09-18 06:39:36 51°17.72 2°52.66 2.5 273 16.9 101700 66
2003-09-18 06:39:42 51°17.75 2°52.66 2.2 285 16.9 101700 66
2003-09-18 06:39:46 51°17.76 2°52.65 2.2 284 17 101700 67
2003-09-18 06:39:52 51°17.79 2°52.65 2.2 300 17 101700 67
2003-09-18 06:39:56 51°17.8 2°52.65 2.5 293 17 101700 67
2003-09-18 06:40:02 51°17.83 2°52.65 2.5 277 17 101700 67
2003-09-18 06:40:06 51°17.84 2°52.65 2.4 288 17 101700 67
2003-09-18 06:40:12 51°17.87 2°52.64 2.4 296 17 101700 67
2003-09-18 06:40:16 51°17.88 2°52.64 3 287 17.1 101700 67
2003-09-18 06:40:22 51°17.9 2°52.64 2.5 292 17.1 101700 67
2003-09-18 06:40:26 51°17.92 2°52.64 2.6 287 17 101690 67
2003-09-18 06:40:32 51°17.94 2°52.63 2.6 289 17 101690 67
2003-09-18 06:40:36 51°17.96 2°52.63 2.5 298 17 101690 67
2003-09-18 06:40:42 51°17.98 2°52.63 2.9 290 17 101690 67
2003-09-18 06:40:46 51°18 2°52.63 2.9 291 17 101700 67
2003-09-18 06:40:52 51°18.02 2°52.62 2.7 293 17 101700 67
2003-09-18 06:40:56 51°18.04 2°52.62 2.9 286 17 101700 67
2003-09-18 06:41:02 51°18.06 2°52.62 3.1 290 17 101700 67
2003-09-18 06:41:06 51°18.08 2°52.61 3.2 286 17.1 101700 67
2003-09-18 06:41:12 51°18.1 2°52.61 3 295 17.1 101700 67
2003-09-18 06:41:16 51°18.12 2°52.61 3 274 17.1 101690 68
2003-09-18 06:41:22 51°18.14 2°52.61 3.1 268 17.1 101690 68
2003-09-18 06:41:26 51°18.16 2°52.61 3.1 266 17.1 101700 68
2003-09-18 06:41:32 51°18.18 2°52.6 2.6 299 17.1 101700 68
2003-09-18 06:41:36 51°18.2 2°52.6 2.2 305 17.1 101700 67
2003-09-18 06:41:42 51°18.22 2°52.6 1.8 322 17.1 101700 67
2003-09-18 06:41:46 51°18.24 2°52.61 1.6 315 17.1 101690 67
2003-09-18 06:41:52 51°18.26 2°52.61 0.8 259 17.1 101690 67
2003-09-18 06:41:56 51°18.28 2°52.61 0.4 238 17 101690 67
2003-09-18 06:42:02 51°18.3 2°52.62 0.2 206 17 101690 67
2003-09-18 06:42:06 51°18.32 2°52.63 0.1 151 17.1 101700 67
2003-09-18 06:42:12 51°18.34 2°52.65 1.4 61 17.1 101700 67
2003-09-18 06:42:16 51°18.35 2°52.66 2 59 17.1 101700 67
2003-09-18 06:42:22 51°18.37 2°52.67 2.7 89 17.1 101700 67
2003-09-18 06:42:26 51°18.39 2°52.68 3 101 17.1 101700 68
2003-09-18 06:42:32 51°18.41 2°52.7 3.2 103 17.1 101700 68
2003-09-18 06:42:36 51°18.42 2°52.72 2.2 92 17.1 101700 68
2003-09-18 06:42:42 51°18.44 2°52.74 4.3 96 17.1 101700 68
2003-09-18 06:42:46 51°18.45 2°52.75 4.2 91 17.1 101700 68
2003-09-18 06:42:52 51°18.47 2°52.78 4.5 93 17.1 101700 68
2003-09-18 06:42:56 51°18.48 2°52.8 4 81 17.1 101700 66
2003-09-18 06:43:02 51°18.5 2°52.83 6.4 88 17.1 101700 66
2003-09-18 06:43:06 51°18.51 2°52.85 4.5 74 17.1 101700 66
2003-09-18 06:43:12 51°18.52 2°52.88 5.5 72 17.1 101700 66
2003-09-18 06:43:16 51°18.52 2°52.9 6 77 17.1 101690 66
2003-09-18 06:43:22 51°18.53 2°52.94 6 78 17.1 101690 66
2003-09-18 06:43:26 51°18.54 2°52.96 5.4 77 17.1 101700 65
2003-09-18 06:43:32 51°18.55 2°53 6.8 66 17.1 101700 65
2003-09-18 06:43:36 51°18.56 2°53.02 7 71 17.2 101690 67
2003-09-18 06:43:42 51°18.56 2°53.05 6.9 70 17.2 101690 67
2003-09-18 06:43:46 51°18.57 2°53.08 7.3 75 17.2 101690 68
2003-09-18 06:43:52 51°18.58 2°53.11 7.1 77 17.2 101690 68
2003-09-18 06:43:56 51°18.58 2°53.14 6.9 74 17.2 101690 68
2003-09-18 06:44:02 51°18.59 2°53.17 7.1 77 17.2 101690 68
2003-09-18 06:44:06 51°18.6 2°53.2 6 71 17.2 101690 68
2003-09-18 06:44:12 51°18.61 2°53.23 6.9 78 17.2 101690 68
2003-09-18 06:44:16 51°18.62 2°53.25 5.9 79 17.2 101690 67
2003-09-18 06:44:22 51°18.63 2°53.29 6.4 80 17.2 101690 67
2003-09-18 06:44:26 51°18.63 2°53.31 6.8 80 17.2 101690 67
2003-09-18 06:44:32 51°18.64 2°53.35 7.2 81 17.2 101690 67
2003-09-18 06:44:36 51°18.65 2°53.37 7.9 84 17.1 101700 67
2003-09-18 06:44:42 51°18.66 2°53.4 5.6 73 17.1 101700 67
2003-09-18 06:44:46 51°18.67 2°53.43 7.1 79 17.1 101690 67
2003-09-18 06:44:52 51°18.68 2°53.46 5.7 81 17.1 101690 67
2003-09-18 06:44:56 51°18.68 2°53.48 6.4 81 17.1 101690 66
2003-09-18 06:45:02 51°18.69 2°53.52 6.7 82 17.1 101690 66
2003-09-18 06:45:06 51°18.7 2°53.54 6.4 81 17.1 101690 66
2003-09-18 06:45:12 51°18.71 2°53.58 8.1 82 17.1 101690 66
2003-09-18 06:45:16 51°18.72 2°53.6 7.1 79 17.1 101690 66
2003-09-18 06:45:22 51°18.73 2°53.63 6.1 72 17.1 101690 66
2003-09-18 06:45:26 51°18.73 2°53.66 7.3 82 17.1 101700 67
2003-09-18 06:45:30 51°18.74 2°53.68 6.8 81 17.1 101700 67
2003-09-18 06:45:36 51°18.75 2°53.71 5.4 77 17.1 101700 66
2003-09-18 06:45:42 51°18.76 2°53.75 7.5 86 17.1 101700 66
2003-09-18 06:45:46 51°18.77 2°53.77 6.3 79 17.1 101690 67
2003-09-18 06:45:52 51°18.78 2°53.8 6.2 81 17.1 101690 67
2003-09-18 06:45:56 51°18.79 2°53.83 5.4 78 17.1 101700 67
2003-09-18 06:46:02 51°18.8 2°53.86 6 76 17.1 101700 67
2003-09-18 06:46:06 51°18.8 2°53.88 5.7 73 17.1 101700 66
2003-09-18 06:46:12 51°18.81 2°53.92 5.7 80 17.1 101700 66
2003-09-18 06:46:16 51°18.82 2°53.94 6.4 74 17.1 101700 67
2003-09-18 06:46:22 51°18.83 2°53.98 8.1 83 17.1 101700 67
2003-09-18 06:46:26 51°18.83 2°54 8 83 17.2 101690 67
2003-09-18 06:46:32 51°18.85 2°54.03 6.6 82 17.2 101690 67
2003-09-18 06:46:36 51°18.85 2°54.06 6 77 17.2 101690 68
2003-09-18 06:46:42 51°18.86 2°54.09 7 81 17.2 101690 68
2003-09-18 06:46:46 51°18.87 2°54.11 5.8 78 17.2 101700 66
2003-09-18 06:46:52 51°18.88 2°54.15 6.5 79 17.2 101700 66
2003-09-18 06:46:56 51°18.89 2°54.17 6.1 71 17.2 101700 66
2003-09-18 06:47:02 51°18.9 2°54.2 5.5 74 17.2 101700 66
2003-09-18 06:47:06 51°18.91 2°54.22 6 73 17.2 101700 66
2003-09-18 06:47:12 51°18.92 2°54.26 6.8 81 17.2 101700 66
2003-09-18 06:47:16 51°18.92 2°54.28 6.6 74 17.2 101700 67
2003-09-18 06:47:22 51°18.93 2°54.32 6.4 77 17.2 101700 67
2003-09-18 06:47:26 51°18.94 2°54.34 6.9 81 17.2 101700 66
2003-09-18 06:47:32 51°18.95 2°54.37 7.1 81 17.2 101700 66
2003-09-18 06:47:36 51°18.96 2°54.4 6.9 81 17.3 101690 67
2003-09-18 06:47:42 51°18.97 2°54.43 6.4 71 17.3 101690 67
2003-09-18 06:47:46 51°18.97 2°54.45 5.7 75 17.3 101700 66
2003-09-18 06:47:52 51°18.98 2°54.49 7 80 17.3 101700 66
2003-09-18 06:47:56 51°18.99 2°54.51 6.3 82 17.3 101690 66
2003-09-18 06:48:02 51°19 2°54.54 7.1 74 17.3 101690 66
2003-09-18 06:48:06 51°19.01 2°54.57 6 73 17.3 101700 67
2003-09-18 06:48:12 51°19.02 2°54.6 6.7 76 17.3 101700 67
2003-09-18 06:48:16 51°19.02 2°54.62 5.2 76 17.3 101700 66
2003-09-18 06:48:22 51°19.03 2°54.66 7.8 82 17.3 101700 66
2003-09-18 06:48:26 51°19.04 2°54.68 6 78 17.3 101690 67
2003-09-18 06:48:32 51°19.05 2°54.71 6.4 79 17.3 101690 67
2003-09-18 06:48:36 51°19.06 2°54.74 6.4 79 17.4 101700 67
2003-09-18 06:48:42 51°19.07 2°54.77 6.1 78 17.4 101700 67
2003-09-18 06:48:46 51°19.08 2°54.79 5.7 68 17.4 101690 66
2003-09-18 06:48:52 51°19.09 2°54.83 6.7 79 17.4 101690 66
2003-09-18 06:48:56 51°19.09 2°54.85 5.8 78 17.4 101690 67
2003-09-18 06:49:02 51°19.1 2°54.89 7 79 17.4 101690 67
2003-09-18 06:49:06 51°19.11 2°54.91 6.6 73 17.4 101700 66
2003-09-18 06:49:12 51°19.12 2°54.94 7.3 82 17.4 101700 66
2003-09-18 06:49:16 51°19.13 2°54.96 6.9 81 17.4 101690 65
2003-09-18 06:49:22 51°19.14 2°55 7 79 17.4 101690 65
2003-09-18 06:49:26 51°19.15 2°55.02 6.3 77 17.4 101700 65
2003-09-18 06:49:32 51°19.16 2°55.06 5.9 76 17.4 101700 65
2003-09-18 06:49:36 51°19.16 2°55.08 6.6 78 17.4 101700 65
2003-09-18 06:49:42 51°19.17 2°55.11 7.2 78 17.4 101700 65
2003-09-18 06:49:46 51°19.18 2°55.14 6.3 80 17.4 101700 65
2003-09-18 06:49:52 51°19.19 2°55.17 6.7 76 17.4 101700 65
2003-09-18 06:49:56 51°19.2 2°55.19 6.4 76 17.4 101700 66
2003-09-18 06:50:02 51°19.21 2°55.23 6.9 79 17.4 101700 66
2003-09-18 06:50:06 51°19.21 2°55.25 8.1 83 17.4 101700 65
2003-09-18 06:50:12 51°19.22 2°55.28 7.4 82 17.4 101700 65
2003-09-18 06:50:16 51°19.23 2°55.31 6.5 78 17.4 101700 65
2003-09-18 06:50:22 51°19.24 2°55.34 6.2 79 17.4 101700 65
2003-09-18 06:50:26 51°19.25 2°55.36 6.4 68 17.4 101690 64
2003-09-18 06:50:32 51°19.26 2°55.4 6.3 74 17.4 101690 64
2003-09-18 06:50:36 51°19.27 2°55.42 5.7 72 17.4 101700 64
2003-09-18 06:50:42 51°19.28 2°55.46 6.1 70 17.4 101700 64
2003-09-18 06:50:46 51°19.28 2°55.48 6.4 68 17.5 101700 66
2003-09-18 06:50:52 51°19.29 2°55.51 6.9 70 17.5 101700 66
2003-09-18 06:50:56 51°19.3 2°55.53 7 70 17.5 101700 67
2003-09-18 06:51:02 51°19.31 2°55.57 6.7 68 17.5 101700 67
2003-09-18 06:51:06 51°19.32 2°55.59 6.3 74 17.6 101700 67
2003-09-18 06:51:12 51°19.33 2°55.63 7 67 17.6 101700 67
2003-09-18 06:51:16 51°19.34 2°55.65 6.7 76 17.6 101690 67
2003-09-18 06:51:22 51°19.35 2°55.68 7.1 73 17.6 101690 67
2003-09-18 06:51:26 51°19.35 2°55.71 5.8 76 17.6 101690 66
2003-09-18 06:51:32 51°19.36 2°55.74 6.8 81 17.6 101690 66
2003-09-18 06:51:36 51°19.37 2°55.76 5.8 75 17.6 101700 66
2003-09-18 06:51:42 51°19.38 2°55.8 7 67 17.6 101700 66
2003-09-18 06:51:46 51°19.39 2°55.82 7.1 70 17.6 101700 67
2003-09-18 06:51:52 51°19.4 2°55.85 7.2 71 17.6 101700 67
2003-09-18 06:51:56 51°19.41 2°55.88 6.6 79 17.6 101700 65
2003-09-18 06:52:02 51°19.42 2°55.91 7.2 78 17.6 101700 65
2003-09-18 06:52:06 51°19.42 2°55.93 6.7 72 17.6 101700 67
2003-09-18 06:52:12 51°19.43 2°55.97 6 74 17.6 101700 67
2003-09-18 06:52:16 51°19.44 2°55.99 6.2 72 17.6 101700 66
2003-09-18 06:52:22 51°19.45 2°56.03 6.6 69 17.6 101700 66
2003-09-18 06:52:26 51°19.46 2°56.05 6.2 75 17.5 101700 64
2003-09-18 06:52:32 51°19.47 2°56.08 6.7 80 17.5 101700 64
2003-09-18 06:52:38 51°19.48 2°56.12 7 67 17.5 101690 65
2003-09-18 06:52:42 51°19.49 2°56.14 6.3 79 17.5 101690 65
2003-09-18 06:52:46 51°19.49 2°56.16 7 81 17.5 101700 65
2003-09-18 06:52:52 51°19.51 2°56.2 7.5 80 17.5 101700 65
2003-09-18 06:52:56 51°19.51 2°56.22 7.4 79 17.6 101690 65
2003-09-18 06:53:02 51°19.52 2°56.25 8.1 90 17.6 101690 65
2003-09-18 06:53:06 51°19.53 2°56.27 7.4 80 17.5 101700 64
2003-09-18 06:53:12 51°19.54 2°56.31 6.4 68 17.5 101700 64
2003-09-18 06:53:16 51°19.55 2°56.33 6.7 73 17.5 101700 64
2003-09-18 06:53:22 51°19.56 2°56.37 6.7 78 17.5 101700 64
2003-09-18 06:53:26 51°19.56 2°56.39 6.4 80 17.5 101700 64
2003-09-18 06:53:32 51°19.57 2°56.42 6.2 79 17.5 101700 64
2003-09-18 06:53:36 51°19.58 2°56.45 6.7 74 17.6 101690 65
2003-09-18 06:53:42 51°19.59 2°56.48 6.9 75 17.6 101690 65
2003-09-18 06:53:46 51°19.6 2°56.5 5.8 76 17.6 101700 66
2003-09-18 06:53:52 51°19.61 2°56.54 6.1 79 17.6 101700 66
2003-09-18 06:53:56 51°19.62 2°56.56 6.1 68 17.6 101700 65
2003-09-18 06:54:02 51°19.63 2°56.59 7 68 17.6 101700 65
2003-09-18 06:54:06 51°19.63 2°56.62 6.4 68 17.6 101700 67
2003-09-18 06:54:12 51°19.64 2°56.65 6.5 69 17.6 101700 67
2003-09-18 06:54:16 51°19.65 2°56.67 6.2 75 17.7 101700 66
2003-09-18 06:54:22 51°19.66 2°56.71 7 64 17.7 101700 66
2003-09-18 06:54:26 51°19.67 2°56.73 5.5 75 17.7 101700 67
2003-09-18 06:54:32 51°19.68 2°56.76 6.3 77 17.7 101700 67
2003-09-18 06:54:36 51°19.69 2°56.79 7.1 69 17.7 101700 66
2003-09-18 06:54:42 51°19.7 2°56.82 6.6 69 17.7 101700 66
2003-09-18 06:54:46 51°19.71 2°56.84 6.7 76 17.7 101700 66
2003-09-18 06:54:52 51°19.72 2°56.88 7.2 62 17.7 101700 66
2003-09-18 06:54:56 51°19.72 2°56.9 6.8 75 17.6 101700 65
2003-09-18 06:55:02 51°19.73 2°56.93 6.4 65 17.6 101700 65
2003-09-18 06:55:06 51°19.74 2°56.96 6.4 73 17.6 101700 65
2003-09-18 06:55:12 51°19.75 2°56.99 6.6 79 17.6 101700 65
2003-09-18 06:55:16 51°19.76 2°57.01 6.4 74 17.6 101700 66
2003-09-18 06:55:22 51°19.77 2°57.05 6.4 77 17.6 101700 66
2003-09-18 06:55:26 51°19.78 2°57.07 6.6 74 17.6 101700 67
2003-09-18 06:55:32 51°19.79 2°57.1 6.1 74 17.6 101700 67
2003-09-18 06:55:36 51°19.79 2°57.13 6.1 75 17.6 101700 66
2003-09-18 06:55:42 51°19.8 2°57.16 7 82 17.6 101700 66
2003-09-18 06:55:46 51°19.81 2°57.18 6.3 70 17.6 101700 66
2003-09-18 06:55:52 51°19.82 2°57.22 6.3 79 17.6 101700 66
2003-09-18 06:55:56 51°19.83 2°57.24 7 70 17.6 101700 65
2003-09-18 06:56:02 51°19.84 2°57.27 5.7 77 17.6 101700 65
2003-09-18 06:56:06 51°19.85 2°57.3 6.3 70 17.6 101700 65
2003-09-18 06:56:12 51°19.86 2°57.33 6 66 17.6 101700 65
2003-09-18 06:56:16 51°19.87 2°57.35 6.4 71 17.6 101700 65
2003-09-18 06:56:22 51°19.88 2°57.39 6.8 69 17.6 101700 65
2003-09-18 06:56:26 51°19.88 2°57.41 6.8 72 17.6 101700 65
2003-09-18 06:56:32 51°19.89 2°57.44 6.5 78 17.6 101700 65
2003-09-18 06:56:36 51°19.9 2°57.47 5.9 73 17.6 101700 65
2003-09-18 06:56:42 51°19.91 2°57.5 5.5 74 17.6 101700 65
2003-09-18 06:56:46 51°19.92 2°57.52 6.3 70 17.6 101700 66
2003-09-18 06:56:52 51°19.93 2°57.56 6.9 73 17.6 101700 66
2003-09-18 06:56:56 51°19.93 2°57.58 6.1 72 17.6 101700 66
2003-09-18 06:57:02 51°19.94 2°57.62 6 71 17.6 101700 66
2003-09-18 06:57:06 51°19.95 2°57.64 5.5 76 17.6 101690 65
2003-09-18 06:57:12 51°19.96 2°57.67 6.4 69 17.6 101690 65
2003-09-18 06:57:18 51°19.97 2°57.71 5.9 70 17.6 101690 65
2003-09-18 06:57:22 51°19.98 2°57.73 6.4 75 17.6 101690 65
2003-09-18 06:57:26 51°19.99 2°57.75 5.8 65 17.6 101700 66
2003-09-18 06:57:32 51°20 2°57.79 5.9 71 17.6 101700 66
2003-09-18 06:57:36 51°20 2°57.81 6.7 68 17.6 101700 66
2003-09-18 06:57:42 51°20.01 2°57.84 7.1 63 17.6 101700 66
2003-09-18 06:57:46 51°20.02 2°57.87 6.4 67 17.7 101700 67
2003-09-18 06:57:52 51°20.03 2°57.9 6.1 73 17.7 101700 67
2003-09-18 06:57:56 51°20.04 2°57.92 6.3 73 17.7 101700 67
2003-09-18 06:58:02 51°20.05 2°57.96 6.5 70 17.7 101700 67
2003-09-18 06:58:06 51°20.06 2°57.98 7.1 65 17.7 101700 67
2003-09-18 06:58:12 51°20.07 2°58.01 6.7 66 17.7 101700 67
2003-09-18 06:58:16 51°20.07 2°58.03 6.2 74 17.7 101690 67
2003-09-18 06:58:22 51°20.08 2°58.07 6.2 75 17.7 101690 67
2003-09-18 06:58:26 51°20.09 2°58.09 6.7 67 17.6 101700 67
2003-09-18 06:58:32 51°20.1 2°58.13 6.3 73 17.6 101700 67
2003-09-18 06:58:36 51°20.11 2°58.15 6.2 72 17.6 101690 66
2003-09-18 06:58:42 51°20.12 2°58.18 6.9 68 17.6 101690 66
2003-09-18 06:58:46 51°20.13 2°58.2 6.3 68 17.6 101690 67
2003-09-18 06:58:52 51°20.14 2°58.24 5.8 74 17.6 101690 67
2003-09-18 06:58:56 51°20.14 2°58.26 6.3 72 17.6 101700 67
2003-09-18 06:59:02 51°20.15 2°58.3 6.1 77 17.6 101700 67
2003-09-18 06:59:06 51°20.16 2°58.32 6.8 77 17.5 101700 68
2003-09-18 06:59:12 51°20.17 2°58.35 5.9 73 17.5 101700 68
2003-09-18 06:59:16 51°20.18 2°58.37 6.4 78 17.5 101700 67
2003-09-18 06:59:22 51°20.19 2°58.41 7.4 80 17.5 101700 67
2003-09-18 06:59:26 51°20.2 2°58.43 6.6 79 17.5 101700 67
2003-09-18 06:59:32 51°20.21 2°58.46 6.4 78 17.5 101700 67
2003-09-18 06:59:36 51°20.21 2°58.49 6.5 75 17.4 101700 67
2003-09-18 06:59:42 51°20.22 2°58.52 6.7 80 17.4 101700 67
2003-09-18 06:59:46 51°20.23 2°58.54 6.2 79 17.4 101700 66
2003-09-18 06:59:52 51°20.24 2°58.58 6.1 75 17.4 101700 66
2003-09-18 06:59:56 51°20.25 2°58.6 6.4 71 17.4 101700 66
2003-09-18 07:00:02 51°20.26 2°58.64 6.9 81 17.4 101700 66
2003-09-18 07:00:06 51°20.26 2°58.66 7.5 81 17.4 101690 66
2003-09-18 07:00:12 51°20.27 2°58.7 6.2 81 17.4 101690 66
2003-09-18 07:00:16 51°20.28 2°58.72 5.8 80 17.4 101700 67
2003-09-18 07:00:22 51°20.29 2°58.75 6.5 77 17.4 101700 67
2003-09-18 07:00:26 51°20.29 2°58.78 5.9 80 17.4 101690 65
2003-09-18 07:00:32 51°20.3 2°58.81 6.7 76 17.4 101690 65
2003-09-18 07:00:36 51°20.31 2°58.84 6.2 69 17.4 101700 67
2003-09-18 07:00:42 51°20.31 2°58.87 6.5 80 17.4 101700 67
2003-09-18 07:00:46 51°20.32 2°58.9 5 78 17.4 101690 66
2003-09-18 07:00:52 51°20.33 2°58.93 6.8 78 17.4 101690 66
2003-09-18 07:00:56 51°20.34 2°58.95 5.9 80 17.4 101690 67
2003-09-18 07:01:02 51°20.34 2°58.99 7.2 78 17.4 101690 67
2003-09-18 07:01:06 51°20.35 2°59.01 6.4 68 17.4 101700 66
2003-09-18 07:01:12 51°20.36 2°59.05 7.6 81 17.4 101700 66
2003-09-18 07:01:16 51°20.37 2°59.07 6.1 74 17.4 101700 66
2003-09-18 07:01:22 51°20.37 2°59.11 6.8 80 17.4 101700 66
2003-09-18 07:01:26 51°20.38 2°59.13 7.9 84 17.4 101690 66
2003-09-18 07:01:32 51°20.39 2°59.16 6 79 17.4 101690 66
2003-09-18 07:01:34 51°20.39 2°59.18 6.6 79 17.4 101690 66
2003-09-18 07:01:42 51°20.4 2°59.22 6.5 79 17.4 101690 66
2003-09-18 07:01:46 51°20.41 2°59.25 7.2 81 17.4 101690 66
2003-09-18 07:01:52 51°20.42 2°59.28 6 74 17.4 101690 66
2003-09-18 07:01:56 51°20.43 2°59.3 6.3 74 17.4 101690 67
2003-09-18 07:02:02 51°20.43 2°59.34 6.9 79 17.4 101690 67
2003-09-18 07:02:06 51°20.44 2°59.36 5.8 77 17.4 101700 67
2003-09-18 07:02:12 51°20.45 2°59.4 6 72 17.4 101700 67
2003-09-18 07:02:16 51°20.46 2°59.42 6.5 74 17.4 101700 67
2003-09-18 07:02:22 51°20.46 2°59.46 6.2 80 17.4 101700 67
2003-09-18 07:02:26 51°20.47 2°59.48 5.8 74 17.5 101700 67
2003-09-18 07:02:32 51°20.48 2°59.51 6.9 70 17.5 101700 67
2003-09-18 07:02:36 51°20.49 2°59.54 6.8 79 17.5 101690 68
2003-09-18 07:02:42 51°20.49 2°59.57 6.5 73 17.5 101690 68
2003-09-18 07:02:46 51°20.5 2°59.6 5.7 74 17.5 101690 67
2003-09-18 07:02:52 51°20.51 2°59.63 6 75 17.5 101690 67
2003-09-18 07:02:56 51°20.51 2°59.65 6.9 80 17.4 101690 66
2003-09-18 07:03:02 51°20.52 2°59.69 6.5 72 17.4 101690 66
2003-09-18 07:03:06 51°20.53 2°59.71 6.6 76 17.4 101690 67
2003-09-18 07:03:12 51°20.54 2°59.75 7.1 68 17.4 101690 67
2003-09-18 07:03:16 51°20.54 2°59.77 6.8 78 17.4 101700 66
2003-09-18 07:03:22 51°20.55 2°59.81 7.1 79 17.4 101700 66
2003-09-18 07:03:26 51°20.56 2°59.83 6.6 75 17.4 101700 66
2003-09-18 07:03:32 51°20.57 2°59.87 7.1 70 17.4 101700 66
2003-09-18 07:03:36 51°20.57 2°59.89 6 78 17.4 101700 67
2003-09-18 07:03:42 51°20.58 2°59.92 6.7 66 17.4 101700 67
2003-09-18 07:03:46 51°20.59 2°59.95 6.5 73 17.4 101700 66
2003-09-18 07:03:52 51°20.6 2°59.98 6 77 17.4 101700 66
2003-09-18 07:03:56 51°20.6 3°0.01 6.6 77 17.4 101700 66
2003-09-18 07:04:02 51°20.61 3°0.04 6.5 70 17.4 101700 66
2003-09-18 07:04:06 51°20.62 3°0.07 6.5 76 17.4 101690 67
2003-09-18 07:04:12 51°20.63 3°0.1 5.5 70 17.4 101690 67
2003-09-18 07:04:16 51°20.63 3°0.12 6.2 76 17.4 101690 66
2003-09-18 07:04:22 51°20.64 3°0.16 6.1 72 17.4 101690 66
2003-09-18 07:04:26 51°20.65 3°0.18 6.6 78 17.4 101690 68
2003-09-18 07:04:32 51°20.66 3°0.22 6.8 79 17.4 101690 68
2003-09-18 07:04:36 51°20.66 3°0.24 6.4 81 17.4 101690 66
2003-09-18 07:04:42 51°20.67 3°0.28 5.5 75 17.4 101690 66
2003-09-18 07:04:46 51°20.68 3°0.3 6.1 74 17.4 101700 67
2003-09-18 07:04:52 51°20.69 3°0.34 6.5 87 17.4 101700 67
2003-09-18 07:04:56 51°20.69 3°0.36 6.7 82 17.4 101700 66
2003-09-18 07:05:02 51°20.7 3°0.4 6.8 80 17.4 101700 66
2003-09-18 07:05:06 51°20.71 3°0.42 6.4 77 17.4 101690 66
2003-09-18 07:05:12 51°20.72 3°0.46 6.5 69 17.4 101690 66
2003-09-18 07:05:16 51°20.72 3°0.48 6.5 80 17.4 101700 66
2003-09-18 07:05:22 51°20.73 3°0.51 7.4 80 17.4 101700 66
2003-09-18 07:05:26 51°20.74 3°0.54 6.2 74 17.4 101700 66
2003-09-18 07:05:32 51°20.75 3°0.57 5.4 77 17.4 101700 66
2003-09-18 07:05:36 51°20.75 3°0.6 6.1 76 17.4 101700 66
2003-09-18 07:05:42 51°20.76 3°0.63 7.1 78 17.4 101700 66
2003-09-18 07:05:46 51°20.77 3°0.65 5.3 72 17.4 101700 66
2003-09-18 07:05:52 51°20.78 3°0.69 6.8 83 17.4 101700 66
2003-09-18 07:05:56 51°20.78 3°0.71 5.8 76 17.4 101700 67
2003-09-18 07:06:02 51°20.79 3°0.75 5.7 70 17.4 101700 67
2003-09-18 07:06:06 51°20.8 3°0.77 6.9 64 17.4 101700 65
2003-09-18 07:06:12 51°20.81 3°0.81 7 66 17.4 101700 65
2003-09-18 07:06:16 51°20.81 3°0.83 5.7 77 17.4 101700 66
2003-09-18 07:06:22 51°20.82 3°0.86 6.7 78 17.4 101700 66
2003-09-18 07:06:26 51°20.83 3°0.89 6.1 75 17.4 101700 67
2003-09-18 07:06:32 51°20.84 3°0.92 7.5 65 17.4 101700 67
2003-09-18 07:06:36 51°20.84 3°0.95 6.5 72 17.4 101700 67
2003-09-18 07:06:42 51°20.85 3°0.98 6.9 71 17.4 101700 67
2003-09-18 07:06:46 51°20.86 3°1.01 6.8 74 17.4 101700 67
2003-09-18 07:06:52 51°20.87 3°1.04 7.2 66 17.4 101700 67
2003-09-18 07:06:56 51°20.87 3°1.07 7.6 63 17.4 101700 67
2003-09-18 07:07:02 51°20.88 3°1.1 7.1 73 17.4 101700 67
2003-09-18 07:07:06 51°20.89 3°1.13 6.6 80 17.4 101700 67
2003-09-18 07:07:12 51°20.9 3°1.16 7.1 80 17.4 101700 67
2003-09-18 07:07:16 51°20.9 3°1.18 5.3 77 17.4 101700 67
2003-09-18 07:07:22 51°20.91 3°1.22 6.3 77 17.4 101700 67
2003-09-18 07:07:26 51°20.92 3°1.24 7.5 79 17.4 101700 66
2003-09-18 07:07:32 51°20.93 3°1.28 7.5 80 17.4 101700 66
2003-09-18 07:07:36 51°20.93 3°1.3 7.1 73 17.4 101700 65
2003-09-18 07:07:42 51°20.94 3°1.34 6.3 78 17.4 101700 65
2003-09-18 07:07:46 51°20.95 3°1.36 6.4 75 17.4 101700 65
2003-09-18 07:07:52 51°20.95 3°1.4 6.2 70 17.4 101700 65
2003-09-18 07:07:56 51°20.96 3°1.42 6.7 80 17.4 101700 65
2003-09-18 07:08:02 51°20.97 3°1.46 6.6 69 17.4 101700 65
2003-09-18 07:08:06 51°20.97 3°1.48 7.3 66 17.4 101700 66
2003-09-18 07:08:12 51°20.98 3°1.52 7.8 68 17.4 101700 66
2003-09-18 07:08:16 51°20.99 3°1.54 7.8 64 17.4 101700 66
2003-09-18 07:08:22 51°21 3°1.58 6.8 73 17.4 101700 66
2003-09-18 07:08:26 51°21 3°1.6 7.5 65 17.5 101700 67
2003-09-18 07:08:32 51°21.01 3°1.64 7.4 64 17.5 101700 67
2003-09-18 07:08:36 51°21.01 3°1.66 7.8 64 17.5 101700 67
2003-09-18 07:08:42 51°21.02 3°1.7 6.9 68 17.5 101700 67
2003-09-18 07:08:46 51°21.03 3°1.72 6.5 73 17.5 101690 67
2003-09-18 07:08:52 51°21.04 3°1.76 6.5 65 17.5 101690 67
2003-09-18 07:08:56 51°21.04 3°1.78 6.4 65 17.5 101700 67
2003-09-18 07:09:02 51°21.05 3°1.81 6.1 71 17.5 101700 67
2003-09-18 07:09:06 51°21.06 3°1.84 7 65 17.5 101700 66
2003-09-18 07:09:12 51°21.07 3°1.87 6.9 68 17.5 101700 66
2003-09-18 07:09:16 51°21.07 3°1.9 6.5 67 17.5 101700 66
2003-09-18 07:09:22 51°21.08 3°1.93 7.7 63 17.5 101700 66
2003-09-18 07:09:26 51°21.09 3°1.96 7.4 68 17.5 101700 67
2003-09-18 07:09:32 51°21.1 3°1.99 6.9 72 17.5 101700 67
2003-09-18 07:09:36 51°21.1 3°2.02 6.3 74 17.5 101700 67
2003-09-18 07:09:42 51°21.11 3°2.05 7.1 68 17.5 101700 67
2003-09-18 07:09:46 51°21.11 3°2.08 7.5 64 17.5 101700 67
2003-09-18 07:09:52 51°21.12 3°2.11 6.7 66 17.5 101700 67
2003-09-18 07:09:56 51°21.13 3°2.14 6.6 74 17.5 101700 67
2003-09-18 07:10:02 51°21.14 3°2.17 6.3 67 17.5 101700 67
2003-09-18 07:10:06 51°21.14 3°2.2 7.3 65 17.5 101710 65
2003-09-18 07:10:12 51°21.15 3°2.23 6.6 66 17.5 101710 65
2003-09-18 07:10:16 51°21.16 3°2.26 7.1 69 17.4 101700 66
2003-09-18 07:10:22 51°21.17 3°2.29 7.4 59 17.4 101700 66
2003-09-18 07:10:26 51°21.17 3°2.32 7.3 76 17.4 101700 66
2003-09-18 07:10:32 51°21.18 3°2.35 7 65 17.4 101700 66
2003-09-18 07:10:36 51°21.19 3°2.37 7.2 72 17.5 101700 66
2003-09-18 07:10:42 51°21.19 3°2.41 6.7 70 17.5 101700 66
2003-09-18 07:10:46 51°21.2 3°2.43 7.2 71 17.5 101700 65
2003-09-18 07:10:52 51°21.21 3°2.47 6.2 73 17.5 101700 65
2003-09-18 07:10:56 51°21.21 3°2.49 7.4 65 17.5 101700 66
2003-09-18 07:11:02 51°21.22 3°2.53 6.1 76 17.5 101700 66
2003-09-18 07:11:06 51°21.23 3°2.55 6 70 17.5 101710 66
2003-09-18 07:11:12 51°21.24 3°2.59 5.9 74 17.5 101710 66
2003-09-18 07:11:16 51°21.24 3°2.61 5.9 72 17.5 101700 65
2003-09-18 07:11:22 51°21.25 3°2.65 6.1 74 17.5 101700 65
2003-09-18 07:11:26 51°21.26 3°2.67 7 63 17.5 101700 65
2003-09-18 07:11:32 51°21.27 3°2.71 6.9 59 17.5 101700 65
2003-09-18 07:11:36 51°21.27 3°2.73 7.7 70 17.5 101710 66
2003-09-18 07:11:42 51°21.28 3°2.76 7.4 63 17.5 101710 66
2003-09-18 07:11:46 51°21.29 3°2.79 7.7 64 17.5 101710 67
2003-09-18 07:11:52 51°21.29 3°2.82 7.6 60 17.5 101710 67
2003-09-18 07:11:56 51°21.3 3°2.85 7.6 65 17.5 101700 67
2003-09-18 07:12:02 51°21.31 3°2.88 7.8 58 17.5 101700 67
2003-09-18 07:12:06 51°21.31 3°2.91 7.4 67 17.6 101700 66
2003-09-18 07:12:12 51°21.32 3°2.94 7.2 67 17.6 101700 66
2003-09-18 07:12:16 51°21.33 3°2.97 7.1 61 17.6 101700 66
2003-09-18 07:12:22 51°21.34 3°3 6.9 67 17.6 101700 66
2003-09-18 07:12:26 51°21.34 3°3.02 7.1 67 17.5 101700 66
2003-09-18 07:12:32 51°21.35 3°3.06 7.2 60 17.5 101700 66
2003-09-18 07:12:36 51°21.36 3°3.08 7.7 65 17.5 101710 65
2003-09-18 07:12:42 51°21.37 3°3.12 8.2 69 17.5 101710 65
2003-09-18 07:12:46 51°21.37 3°3.14 6.6 78 17.5 101710 66
2003-09-18 07:12:52 51°21.38 3°3.18 7.6 58 17.5 101710 66
2003-09-18 07:12:56 51°21.39 3°3.2 7.3 65 17.5 101710 66
2003-09-18 07:13:02 51°21.39 3°3.24 7.4 66 17.5 101710 66
2003-09-18 07:13:06 51°21.4 3°3.26 7.3 61 17.5 101700 64
2003-09-18 07:13:12 51°21.41 3°3.3 8.1 64 17.5 101700 64
2003-09-18 07:13:16 51°21.41 3°3.32 7.8 63 17.5 101700 67
2003-09-18 07:13:22 51°21.42 3°3.36 7 58 17.5 101700 67
2003-09-18 07:13:26 51°21.43 3°3.38 7.2 67 17.5 101700 66
2003-09-18 07:13:32 51°21.43 3°3.41 7.4 63 17.5 101700 66
2003-09-18 07:13:36 51°21.44 3°3.44 7.4 62 17.5 101700 65
2003-09-18 07:13:42 51°21.45 3°3.47 7.1 69 17.5 101700 65
2003-09-18 07:13:46 51°21.45 3°3.5 7.9 66 17.5 101710 66
2003-09-18 07:13:52 51°21.46 3°3.53 7.3 68 17.5 101710 66
2003-09-18 07:13:56 51°21.47 3°3.56 7.7 64 17.5 101710 65
2003-09-18 07:14:02 51°21.47 3°3.59 6.8 74 17.5 101710 65
2003-09-18 07:14:06 51°21.48 3°3.62 6.5 75 17.5 101700 65
2003-09-18 07:14:12 51°21.49 3°3.65 6.9 69 17.5 101700 65
2003-09-18 07:14:16 51°21.49 3°3.68 6.8 71 17.5 101710 65
2003-09-18 07:14:22 51°21.5 3°3.71 6.5 70 17.5 101710 65
2003-09-18 07:14:26 51°21.51 3°3.74 8.2 65 17.5 101710 65
2003-09-18 07:14:32 51°21.52 3°3.77 6.4 77 17.5 101710 65
2003-09-18 07:14:36 51°21.52 3°3.79 6.9 74 17.5 101710 64
2003-09-18 07:14:42 51°21.53 3°3.83 6.5 68 17.5 101710 64
2003-09-18 07:14:46 51°21.54 3°3.85 7.5 65 17.5 101700 65
2003-09-18 07:14:52 51°21.54 3°3.89 7 57 17.5 101700 65
2003-09-18 07:14:56 51°21.55 3°3.91 7.1 68 17.5 101710 64
2003-09-18 07:15:02 51°21.56 3°3.95 7.9 61 17.5 101710 64
2003-09-18 07:15:06 51°21.56 3°3.97 7.9 62 17.5 101700 66
2003-09-18 07:15:12 51°21.57 3°4.01 7.1 60 17.5 101700 66
2003-09-18 07:15:16 51°21.58 3°4.03 7.7 64 17.6 101710 66
2003-09-18 07:15:22 51°21.59 3°4.07 7.8 60 17.6 101710 66
2003-09-18 07:15:26 51°21.59 3°4.09 7.3 66 17.6 101700 67
2003-09-18 07:15:32 51°21.6 3°4.12 7 62 17.6 101700 67
2003-09-18 07:15:36 51°21.61 3°4.15 7.2 73 17.6 101700 67
2003-09-18 07:15:42 51°21.61 3°4.18 6 70 17.6 101700 67
2003-09-18 07:15:46 51°21.62 3°4.21 7.2 65 17.6 101700 65
2003-09-18 07:15:52 51°21.63 3°4.24 6.5 73 17.6 101700 65
2003-09-18 07:15:56 51°21.63 3°4.27 7.3 64 17.5 101700 66
2003-09-18 07:16:02 51°21.64 3°4.3 6.4 73 17.5 101700 66
2003-09-18 07:16:06 51°21.65 3°4.32 7 61 17.5 101700 65
2003-09-18 07:16:12 51°21.66 3°4.36 7.5 65 17.5 101700 65
2003-09-18 07:16:16 51°21.66 3°4.38 7.2 64 17.5 101710 65
2003-09-18 07:16:22 51°21.67 3°4.42 7.7 57 17.5 101710 65
2003-09-18 07:16:26 51°21.68 3°4.44 7.2 65 17.5 101710 66
2003-09-18 07:16:32 51°21.68 3°4.48 7.4 65 17.5 101710 66
2003-09-18 07:16:36 51°21.69 3°4.5 7.1 68 17.5 101700 66
2003-09-18 07:16:42 51°21.7 3°4.53 7.2 60 17.5 101700 66
2003-09-18 07:16:46 51°21.7 3°4.56 7.2 73 17.5 101700 67
2003-09-18 07:16:52 51°21.71 3°4.59 7 64 17.5 101700 67
2003-09-18 07:16:56 51°21.72 3°4.62 7.3 64 17.5 101700 66
2003-09-18 07:17:02 51°21.72 3°4.65 6.9 68 17.5 101700 66
2003-09-18 07:17:06 51°21.73 3°4.68 7 64 17.4 101700 66
2003-09-18 07:17:12 51°21.74 3°4.71 6.4 70 17.4 101700 66
2003-09-18 07:17:16 51°21.74 3°4.73 7.5 68 17.4 101700 65
2003-09-18 07:17:22 51°21.75 3°4.77 7.7 76 17.4 101700 65
2003-09-18 07:17:26 51°21.76 3°4.79 6.8 75 17.4 101700 65
2003-09-18 07:17:32 51°21.77 3°4.83 7.4 71 17.4 101700 65
2003-09-18 07:17:36 51°21.77 3°4.85 6.8 71 17.4 101700 66
2003-09-18 07:17:42 51°21.78 3°4.89 7.9 62 17.4 101700 66
2003-09-18 07:17:46 51°21.78 3°4.91 6.8 73 17.4 101700 65
2003-09-18 07:17:52 51°21.79 3°4.95 6.5 68 17.4 101700 65
2003-09-18 07:17:56 51°21.8 3°4.97 7.3 69 17.4 101710 66
2003-09-18 07:18:02 51°21.81 3°5 7.2 59 17.4 101710 66
2003-09-18 07:18:06 51°21.81 3°5.03 6.6 67 17.4 101700 65
2003-09-18 07:18:12 51°21.82 3°5.06 7.1 68 17.4 101700 65
2003-09-18 07:18:16 51°21.82 3°5.09 7.2 64 17.4 101700 66
2003-09-18 07:18:22 51°21.83 3°5.12 6.8 68 17.4 101700 66
2003-09-18 07:18:26 51°21.84 3°5.14 7.6 66 17.5 101710 67
2003-09-18 07:18:32 51°21.85 3°5.18 6.9 69 17.5 101710 67
2003-09-18 07:18:36 51°21.85 3°5.2 7.6 62 17.5 101700 66
2003-09-18 07:18:42 51°21.86 3°5.24 7.7 60 17.5 101700 66
2003-09-18 07:18:46 51°21.87 3°5.26 7.2 68 17.4 101710 66
2003-09-18 07:18:52 51°21.87 3°5.3 7.3 67 17.4 101710 66
2003-09-18 07:18:56 51°21.88 3°5.32 7.5 61 17.4 101710 67
2003-09-18 07:19:02 51°21.89 3°5.35 7.6 62 17.4 101710 67
2003-09-18 07:19:06 51°21.89 3°5.38 7.2 68 17.4 101700 67
2003-09-18 07:19:12 51°21.9 3°5.41 7.3 62 17.4 101700 67
2003-09-18 07:19:16 51°21.91 3°5.44 7.2 68 17.4 101700 67
2003-09-18 07:19:22 51°21.91 3°5.47 7.4 64 17.4 101700 67
2003-09-18 07:19:26 51°21.92 3°5.49 7 68 17.4 101710 67
2003-09-18 07:19:32 51°21.93 3°5.53 6.6 67 17.4 101710 67
2003-09-18 07:19:36 51°21.93 3°5.55 7.4 60 17.3 101710 66
2003-09-18 07:19:42 51°21.94 3°5.59 6.9 70 17.3 101710 66
2003-09-18 07:19:46 51°21.95 3°5.61 7.5 65 17.3 101700 67
2003-09-18 07:19:52 51°21.96 3°5.65 7.5 68 17.3 101700 67
2003-09-18 07:19:56 51°21.96 3°5.67 7.4 64 17.3 101700 67
2003-09-18 07:20:02 51°21.97 3°5.7 7 63 17.3 101700 67
2003-09-18 07:20:06 51°21.97 3°5.73 7.4 64 17.3 101710 67
2003-09-18 07:20:12 51°21.98 3°5.76 7.5 65 17.3 101710 67
2003-09-18 07:20:16 51°21.99 3°5.78 7 74 17.3 101710 67
2003-09-18 07:20:22 51°21.99 3°5.82 7.5 64 17.3 101710 67
2003-09-18 07:20:26 51°22 3°5.84 6.7 74 17.3 101700 68
2003-09-18 07:20:32 51°22.01 3°5.88 7 66 17.3 101700 68
2003-09-18 07:20:36 51°22.01 3°5.9 6.3 73 17.2 101710 67
2003-09-18 07:20:42 51°22.02 3°5.94 7.1 69 17.2 101710 67
2003-09-18 07:20:46 51°22.03 3°5.96 6.9 69 17.2 101700 66
2003-09-18 07:20:52 51°22.03 3°5.99 6.9 75 17.2 101700 66
2003-09-18 07:20:56 51°22.04 3°6.02 6.7 61 17.2 101710 67
2003-09-18 07:21:02 51°22.05 3°6.05 6.8 72 17.2 101710 67
2003-09-18 07:21:06 51°22.05 3°6.07 6.2 70 17.2 101710 67
2003-09-18 07:21:12 51°22.06 3°6.11 7.1 65 17.2 101710 67
2003-09-18 07:21:16 51°22.07 3°6.13 6.1 72 17.2 101710 67
2003-09-18 07:21:22 51°22.07 3°6.17 7.1 65 17.2 101710 67
2003-09-18 07:21:26 51°22.08 3°6.19 7.4 67 17.2 101710 66
2003-09-18 07:21:32 51°22.08 3°6.23 6.8 73 17.2 101710 66
2003-09-18 07:21:36 51°22.09 3°6.25 7.1 69 17.2 101710 67
2003-09-18 07:21:42 51°22.1 3°6.29 6.7 74 17.2 101710 67
2003-09-18 07:21:46 51°22.1 3°6.31 6.3 74 17.2 101710 67
2003-09-18 07:21:52 51°22.11 3°6.34 6.3 73 17.2 101710 67
2003-09-18 07:21:56 51°22.11 3°6.37 7.2 65 17.2 101710 67
2003-09-18 07:22:02 51°22.12 3°6.4 7.5 65 17.2 101710 67
2003-09-18 07:22:06 51°22.13 3°6.42 6.8 75 17.2 101700 66
2003-09-18 07:22:12 51°22.13 3°6.46 6.1 70 17.2 101700 66
2003-09-18 07:22:16 51°22.14 3°6.48 6.6 66 17.3 101700 67
2003-09-18 07:22:22 51°22.14 3°6.52 7.1 67 17.3 101700 67
2003-09-18 07:22:26 51°22.15 3°6.54 7.7 61 17.3 101710 67
2003-09-18 07:22:32 51°22.16 3°6.58 7.6 65 17.3 101710 67
2003-09-18 07:22:36 51°22.16 3°6.6 7.8 65 17.3 101710 68
2003-09-18 07:22:42 51°22.17 3°6.64 7 71 17.3 101710 68
2003-09-18 07:22:46 51°22.17 3°6.66 7.8 67 17.3 101700 68
2003-09-18 07:22:52 51°22.18 3°6.69 6.7 64 17.3 101700 68
2003-09-18 07:22:56 51°22.18 3°6.72 7.1 66 17.4 101710 69
2003-09-18 07:23:02 51°22.19 3°6.75 7.7 62 17.4 101710 69
2003-09-18 07:23:06 51°22.2 3°6.78 7.5 67 17.3 101710 68
2003-09-18 07:23:12 51°22.2 3°6.81 7.9 62 17.3 101710 68
2003-09-18 07:23:16 51°22.21 3°6.83 7.7 64 17.3 101700 68
2003-09-18 07:23:22 51°22.21 3°6.87 7 67 17.3 101700 68
2003-09-18 07:23:26 51°22.22 3°6.89 8.4 60 17.3 101700 68
2003-09-18 07:23:32 51°22.23 3°6.93 6.7 72 17.3 101700 68
2003-09-18 07:23:36 51°22.23 3°6.95 7.4 62 17.3 101710 68
2003-09-18 07:23:42 51°22.24 3°6.98 6.8 72 17.3 101710 68
2003-09-18 07:23:46 51°22.24 3°7.01 7.4 67 17.3 101700 68
2003-09-18 07:23:52 51°22.25 3°7.04 6.6 70 17.3 101700 68
2003-09-18 07:23:56 51°22.26 3°7.07 8 65 17.5 101710 68
2003-09-18 07:24:02 51°22.26 3°7.1 8 65 17.5 101710 68
2003-09-18 07:24:06 51°22.27 3°7.12 7 67 17.2 101710 69
2003-09-18 07:24:12 51°22.27 3°7.16 7.6 67 17.2 101710 69
2003-09-18 07:24:16 51°22.28 3°7.18 7.5 68 17.2 101710 69
2003-09-18 07:24:22 51°22.29 3°7.22 7.6 68 17.2 101710 69
2003-09-18 07:24:26 51°22.29 3°7.24 6.8 70 17.2 101710 69
2003-09-18 07:24:32 51°22.3 3°7.28 7.6 65 17.2 101710 69
2003-09-18 07:24:36 51°22.3 3°7.3 8 63 17.2 101710 68
2003-09-18 07:24:42 51°22.31 3°7.33 6.2 75 17.2 101710 68
2003-09-18 07:24:46 51°22.31 3°7.36 6.8 74 17.2 101710 68
2003-09-18 07:24:52 51°22.32 3°7.39 7.5 61 17.2 101710 68
2003-09-18 07:24:56 51°22.33 3°7.41 6.5 65 17.2 101710 68
2003-09-18 07:25:02 51°22.33 3°7.45 6.5 71 17.2 101710 68
2003-09-18 07:25:06 51°22.34 3°7.47 7.4 65 17.2 101700 67
2003-09-18 07:25:12 51°22.35 3°7.51 7.1 71 17.2 101700 67
2003-09-18 07:25:16 51°22.35 3°7.53 7.6 70 17.2 101710 68
2003-09-18 07:25:22 51°22.36 3°7.57 7.4 71 17.2 101710 68
2003-09-18 07:25:26 51°22.36 3°7.59 7.1 69 17.1 101710 67
2003-09-18 07:25:32 51°22.37 3°7.62 6.6 75 17.1 101710 67
2003-09-18 07:25:36 51°22.37 3°7.65 6.7 72 17.1 101710 68
2003-09-18 07:25:42 51°22.38 3°7.68 5.9 78 17.1 101710 68
2003-09-18 07:25:46 51°22.39 3°7.71 5.7 75 17.1 101710 67
2003-09-18 07:25:52 51°22.39 3°7.74 6.3 75 17.1 101710 67
2003-09-18 07:25:56 51°22.4 3°7.76 7.6 68 17.1 101710 68
2003-09-18 07:26:02 51°22.4 3°7.8 6.8 75 17.1 101710 68
2003-09-18 07:26:06 51°22.41 3°7.82 7.5 64 17.2 101710 67
2003-09-18 07:26:12 51°22.42 3°7.86 7.3 80 17.2 101710 67
2003-09-18 07:26:16 51°22.42 3°7.88 7.7 68 17.2 101700 68
2003-09-18 07:26:22 51°22.43 3°7.92 6.5 71 17.2 101700 68
2003-09-18 07:26:26 51°22.43 3°7.94 7.3 69 17.2 101710 67
2003-09-18 07:26:32 51°22.44 3°7.97 8.1 65 17.2 101710 67
2003-09-18 07:26:36 51°22.45 3°8 7.4 69 17.2 101710 67
2003-09-18 07:26:42 51°22.45 3°8.03 7.2 65 17.2 101710 67
2003-09-18 07:26:46 51°22.46 3°8.06 6.5 71 17.2 101700 67
2003-09-18 07:26:52 51°22.47 3°8.09 6.2 74 17.2 101700 67
2003-09-18 07:26:56 51°22.47 3°8.11 7.5 68 17.2 101700 68
2003-09-18 07:27:02 51°22.48 3°8.15 7.1 71 17.2 101700 68
2003-09-18 07:27:06 51°22.48 3°8.17 7.3 67 17.2 101710 68
2003-09-18 07:27:12 51°22.49 3°8.21 7.8 67 17.2 101710 68
2003-09-18 07:27:16 51°22.5 3°8.23 7.2 68 17.3 101710 67
2003-09-18 07:27:22 51°22.5 3°8.27 7.1 72 17.3 101710 67
2003-09-18 07:27:26 51°22.51 3°8.29 6.9 75 17.2 101710 67
2003-09-18 07:27:32 51°22.51 3°8.32 6.5 75 17.2 101710 67
2003-09-18 07:27:36 51°22.52 3°8.34 6.4 72 17.2 101700 67
2003-09-18 07:27:42 51°22.52 3°8.38 7 70 17.2 101700 67
2003-09-18 07:27:46 51°22.53 3°8.4 6.6 77 17.3 101710 66
2003-09-18 07:27:52 51°22.53 3°8.43 7.2 77 17.3 101710 66
2003-09-18 07:27:56 51°22.54 3°8.45 6.7 81 17.2 101710 66
2003-09-18 07:28:02 51°22.54 3°8.48 7.2 82 17.2 101710 66
2003-09-18 07:28:06 51°22.55 3°8.5 5.7 71 17.3 101710 66
2003-09-18 07:28:12 51°22.55 3°8.52 7.4 86 17.3 101710 66
2003-09-18 07:28:16 51°22.56 3°8.54 5.4 77 17.3 101710 66
2003-09-18 07:28:22 51°22.56 3°8.57 7.3 84 17.3 101710 66
2003-09-18 07:28:26 51°22.56 3°8.59 5.5 82 17.3 101710 66
2003-09-18 07:28:32 51°22.57 3°8.62 5.5 75 17.3 101710 66
2003-09-18 07:28:36 51°22.57 3°8.64 6.2 73 17.3 101710 67
2003-09-18 07:28:42 51°22.58 3°8.66 6.4 80 17.3 101710 67
2003-09-18 07:28:46 51°22.58 3°8.68 8 83 17.4 101710 67
2003-09-18 07:28:52 51°22.59 3°8.71 6 79 17.4 101710 67
2003-09-18 07:28:56 51°22.59 3°8.73 7.8 84 17.4 101720 67
2003-09-18 07:29:02 51°22.6 3°8.76 8.2 87 17.4 101720 67
2003-09-18 07:29:06 51°22.6 3°8.77 6.4 80 17.4 101710 66
2003-09-18 07:29:12 51°22.61 3°8.8 5.8 78 17.4 101710 66
2003-09-18 07:29:16 51°22.61 3°8.82 7.5 82 17.4 101710 66
2003-09-18 07:29:22 51°22.62 3°8.85 6.6 80 17.4 101710 66
2003-09-18 07:29:26 51°22.62 3°8.86 6.3 82 17.4 101710 66
2003-09-18 07:29:32 51°22.62 3°8.89 7.6 84 17.4 101710 66
2003-09-18 07:29:36 51°22.63 3°8.9 7.7 85 17.4 101710 67
2003-09-18 07:29:42 51°22.63 3°8.93 6.8 93 17.4 101710 67
2003-09-18 07:29:46 51°22.63 3°8.94 7.5 89 17.5 101710 66
2003-09-18 07:29:52 51°22.64 3°8.96 7.4 99 17.5 101710 66
2003-09-18 07:29:56 51°22.64 3°8.97 7 101 17.5 101710 66
2003-09-18 07:30:02 51°22.64 3°8.99 6.6 104 17.5 101710 66
2003-09-18 07:30:06 51°22.64 3°9 7.5 104 17.5 101710 67
2003-09-18 07:30:12 51°22.65 3°9.01 7.5 105 17.5 101710 67
2003-09-18 07:30:16 51°22.65 3°9.02 6.7 107 17.5 101710 66
2003-09-18 07:30:22 51°22.65 3°9.04 6.6 109 17.5 101710 66
2003-09-18 07:30:26 51°22.65 3°9.05 6.1 107 17.5 101720 66
2003-09-18 07:30:32 51°22.66 3°9.06 5.8 112 17.5 101720 66
2003-09-18 07:30:36 51°22.66 3°9.07 6.1 114 17.5 101720 65
2003-09-18 07:30:42 51°22.66 3°9.08 6.7 119 17.5 101720 65
2003-09-18 07:30:46 51°22.67 3°9.09 6.2 125 17.5 101720 65
2003-09-18 07:30:52 51°22.67 3°9.1 5.7 118 17.5 101720 65
2003-09-18 07:30:56 51°22.67 3°9.11 5.8 115 17.5 101720 67
2003-09-18 07:31:02 51°22.68 3°9.12 5.5 119 17.5 101720 67
2003-09-18 07:31:06 51°22.68 3°9.13 5.8 121 17.5 101720 65
2003-09-18 07:31:12 51°22.68 3°9.14 5.2 123 17.5 101720 65
2003-09-18 07:31:16 51°22.69 3°9.14 5.1 133 17.5 101720 66
2003-09-18 07:31:22 51°22.69 3°9.15 5.7 125 17.5 101720 66
2003-09-18 07:31:26 51°22.69 3°9.16 5.6 130 17.6 101720 67
2003-09-18 07:31:32 51°22.7 3°9.17 6.2 131 17.6 101720 67
2003-09-18 07:31:36 51°22.7 3°9.18 5.7 125 17.6 101720 67
2003-09-18 07:31:42 51°22.7 3°9.18 4.9 128 17.6 101720 67
2003-09-18 07:31:46 51°22.71 3°9.19 6.1 117 17.6 101720 67
2003-09-18 07:31:52 51°22.71 3°9.2 6.7 121 17.6 101720 67
2003-09-18 07:31:56 51°22.71 3°9.21 6.4 117 17.6 101720 66
2003-09-18 07:32:02 51°22.71 3°9.21 6.5 119 17.6 101720 66
2003-09-18 07:32:06 51°22.71 3°9.22 6.7 117 17.6 101720 67
2003-09-18 07:32:12 51°22.72 3°9.23 6.6 109 17.6 101720 67
2003-09-18 07:32:16 51°22.72 3°9.24 6.5 105 17.6 101710 66
2003-09-18 07:32:22 51°22.72 3°9.24 6.7 102 17.6 101710 66
2003-09-18 07:32:26 51°22.72 3°9.25 6.1 97 17.7 101710 66
2003-09-18 07:32:32 51°22.72 3°9.26 6.4 101 17.7 101710 66
2003-09-18 07:32:36 51°22.72 3°9.26 7.7 100 17.7 101710 66
2003-09-18 07:32:42 51°22.72 3°9.27 7.6 102 17.7 101710 66
2003-09-18 07:32:46 51°22.72 3°9.27 7.9 101 17.7 101710 66
2003-09-18 07:32:52 51°22.72 3°9.28 7.2 98 17.7 101710 66
2003-09-18 07:32:56 51°22.72 3°9.29 6.8 110 17.7 101710 66
2003-09-18 07:33:02 51°22.72 3°9.3 7.3 104 17.7 101710 66
2003-09-18 07:33:06 51°22.72 3°9.3 7.7 102 17.6 101710 65
2003-09-18 07:33:12 51°22.72 3°9.31 7.7 98 17.6 101710 65
2003-09-18 07:33:16 51°22.72 3°9.32 7 104 17.6 101710 66
2003-09-18 07:33:22 51°22.73 3°9.33 7.5 98 17.6 101710 66
2003-09-18 07:33:26 51°22.73 3°9.33 7.2 104 17.7 101710 66
2003-09-18 07:33:32 51°22.73 3°9.34 7.7 105 17.7 101710 66
2003-09-18 07:33:36 51°22.73 3°9.35 8.1 102 17.6 101710 65
2003-09-18 07:33:42 51°22.73 3°9.36 8 98 17.6 101710 65
2003-09-18 07:33:46 51°22.73 3°9.37 7.4 99 17.7 101710 66
2003-09-18 07:33:52 51°22.73 3°9.38 7.1 97 17.7 101710 66
2003-09-18 07:33:56 51°22.73 3°9.39 7.7 90 17.7 101710 67
2003-09-18 07:34:02 51°22.73 3°9.4 8.4 93 17.7 101710 67
2003-09-18 07:34:06 51°22.73 3°9.41 6.3 77 17.7 101710 66
2003-09-18 07:34:12 51°22.73 3°9.43 7.3 81 17.7 101710 66
2003-09-18 07:34:16 51°22.73 3°9.43 8.3 64 17.7 101710 66
2003-09-18 07:34:22 51°22.73 3°9.44 8.1 62 17.7 101710 66
2003-09-18 07:34:26 51°22.72 3°9.45 8.5 63 17.7 101710 66
2003-09-18 07:34:32 51°22.72 3°9.46 8.6 61 17.7 101710 66
2003-09-18 07:34:36 51°22.72 3°9.46 7.9 61 17.7 101700 64
2003-09-18 07:34:41 51°22.72 3°9.47 7.4 54 17.7 101700 64
2003-09-18 07:34:46 51°22.72 3°9.47 7.4 52 17.7 101710 66
2003-09-18 07:34:52 51°22.71 3°9.48 7.6 43 17.7 101710 66
2003-09-18 07:34:56 51°22.71 3°9.48 7.1 43 17.7 101710 66
2003-09-18 07:35:02 51°22.71 3°9.48 6.2 52 17.7 101710 66
2003-09-18 07:35:06 51°22.72 3°9.48 6.4 48 17.7 101700 66
2003-09-18 07:35:11 51°22.72 3°9.48 7.3 45 17.7 101700 66
2003-09-18 07:35:15 51°22.72 3°9.48 7.5 45 17.7 101710 66
2003-09-18 07:35:21 51°22.72 3°9.48 7.2 44 17.7 101710 66
2003-09-18 07:35:25 51°22.72 3°9.48 7.5 44 17.7 101710 67
2003-09-18 07:35:31 51°22.72 3°9.49 8.3 43 17.7 101710 67
2003-09-18 07:35:35 51°22.72 3°9.49 7.4 45 17.7 101710 65
2003-09-18 07:35:41 51°22.72 3°9.49 7.5 43 17.7 101710 65
2003-09-18 07:35:45 51°22.72 3°9.49 6.9 51 17.7 101710 65
2003-09-18 07:35:51 51°22.72 3°9.49 7.4 49 17.7 101710 65
2003-09-18 07:35:55 51°22.72 3°9.49 7.4 52 17.6 101700 64
2003-09-18 07:36:01 51°22.72 3°9.49 7.4 53 17.6 101700 64
2003-09-18 07:36:05 51°22.72 3°9.49 7.1 53 17.6 101700 64
2003-09-18 07:36:12 51°22.72 3°9.5 7.6 54 17.6 101700 64
2003-09-18 07:36:15 51°22.72 3°9.5 7.6 51 17.6 101710 65
2003-09-18 07:36:21 51°22.72 3°9.5 8 54 17.6 101710 65
2003-09-18 07:36:25 51°22.72 3°9.5 7 53 17.7 101710 65
2003-09-18 07:36:31 51°22.72 3°9.5 7.6 51 17.7 101710 65
2003-09-18 07:36:35 51°22.72 3°9.5 7.8 51 17.7 101710 66
2003-09-18 07:36:41 51°22.72 3°9.5 7.5 49 17.7 101710 66
2003-09-18 07:36:45 51°22.72 3°9.5 7.2 48 17.7 101710 66
2003-09-18 07:36:51 51°22.72 3°9.51 7.1 52 17.7 101710 66
2003-09-18 07:36:55 51°22.72 3°9.51 7.4 46 17.7 101710 66
2003-09-18 07:37:01 51°22.72 3°9.51 7.4 48 17.7 101710 66
2003-09-18 07:37:05 51°22.72 3°9.51 7 49 17.7 101710 66
2003-09-18 07:37:11 51°22.72 3°9.51 6.7 52 17.7 101710 66
2003-09-18 07:37:15 51°22.72 3°9.51 6.8 44 17.7 101710 66
2003-09-18 07:37:21 51°22.72 3°9.52 6.8 41 17.7 101710 66
2003-09-18 07:37:25 51°22.72 3°9.52 7.3 45 17.7 101710 67
2003-09-18 07:37:31 51°22.72 3°9.52 6.4 49 17.7 101710 67
2003-09-18 07:37:35 51°22.72 3°9.52 7.2 46 17.7 101710 68
2003-09-18 07:37:41 51°22.72 3°9.52 6.7 43 17.7 101710 68
2003-09-18 07:37:45 51°22.72 3°9.52 7.7 50 17.7 101710 68
2003-09-18 07:37:51 51°22.72 3°9.52 7.3 43 17.7 101710 68
2003-09-18 07:37:55 51°22.72 3°9.52 7.2 52 17.7 101710 68
2003-09-18 07:38:01 51°22.72 3°9.53 7.4 46 17.7 101710 68
2003-09-18 07:38:05 51°22.72 3°9.53 7.5 46 17.7 101710 68
2003-09-18 07:38:11 51°22.72 3°9.53 7.4 47 17.7 101710 68
2003-09-18 07:38:15 51°22.72 3°9.53 6.8 59 17.7 101710 67
2003-09-18 07:38:21 51°22.72 3°9.53 7.3 45 17.7 101710 67
2003-09-18 07:38:25 51°22.72 3°9.53 7.4 47 17.7 101710 66
2003-09-18 07:38:31 51°22.72 3°9.53 7.5 47 17.7 101710 66
2003-09-18 07:38:35 51°22.72 3°9.53 7.5 51 17.6 101710 66
2003-09-18 07:38:41 51°22.72 3°9.54 7.5 47 17.6 101710 66
2003-09-18 07:38:45 51°22.72 3°9.54 7.7 49 17.6 101710 65
2003-09-18 07:38:51 51°22.72 3°9.54 7.4 53 17.6 101710 65
2003-09-18 07:38:55 51°22.72 3°9.54 7.4 48 17.7 101710 66
2003-09-18 07:39:01 51°22.72 3°9.54 8.1 52 17.7 101710 66
2003-09-18 07:39:05 51°22.72 3°9.54 7.7 49 17.7 101710 65
2003-09-18 07:39:11 51°22.72 3°9.54 7.7 49 17.7 101710 65
2003-09-18 07:39:15 51°22.72 3°9.54 7.4 46 17.6 101710 66
2003-09-18 07:39:21 51°22.72 3°9.55 6.9 43 17.6 101710 66
2003-09-18 07:39:25 51°22.72 3°9.55 7.2 48 17.7 101710 65
2003-09-18 07:39:31 51°22.72 3°9.55 7 45 17.7 101710 65
2003-09-18 07:39:33 51°22.72 3°9.55 7.1 43 17.7 101710 65
2003-09-18 07:39:41 51°22.72 3°9.55 7.2 42 17.7 101710 65
2003-09-18 07:39:45 51°22.72 3°9.55 7.1 43 17.7 101710 66
2003-09-18 07:39:51 51°22.72 3°9.55 7.2 39 17.7 101710 66
2003-09-18 07:39:55 51°22.72 3°9.56 7.2 42 17.7 101710 65
2003-09-18 07:40:01 51°22.72 3°9.56 7.2 48 17.7 101710 65
2003-09-18 07:40:05 51°22.72 3°9.56 7 44 17.7 101710 65
2003-09-18 07:40:11 51°22.72 3°9.56 8.1 48 17.7 101710 65
2003-09-18 07:40:15 51°22.72 3°9.56 7.9 45 17.7 101710 66
2003-09-18 07:40:21 51°22.72 3°9.56 7.8 45 17.7 101710 66
2003-09-18 07:40:25 51°22.72 3°9.56 7.9 37 17.7 101710 66
2003-09-18 07:40:31 51°22.72 3°9.57 7.8 40 17.7 101710 66
2003-09-18 07:40:35 51°22.72 3°9.57 7.8 45 17.7 101710 65
2003-09-18 07:40:41 51°22.72 3°9.57 7.2 38 17.7 101710 65
2003-09-18 07:40:45 51°22.72 3°9.57 7.3 38 17.7 101700 65
2003-09-18 07:40:51 51°22.72 3°9.57 7.8 40 17.7 101700 65
2003-09-18 07:40:55 51°22.72 3°9.57 7.7 37 17.6 101710 65
2003-09-18 07:41:01 51°22.72 3°9.57 6.9 34 17.6 101710 65
2003-09-18 07:41:05 51°22.72 3°9.57 7.9 41 17.6 101710 64
2003-09-18 07:41:11 51°22.72 3°9.58 7.7 39 17.6 101710 64
2003-09-18 07:41:15 51°22.72 3°9.58 6.8 34 17.6 101710 64